Latest Coastal Weather Observations for Bougainville Reef

IDQ60701

Issued at 8:05 am EST Saturday 30 August 2014 (issued every 10 minutes, with the page automatically refreshed every 10 minutes)

About coastal observations | Map of coastal stations | Coastal observations for QLD | Marine services | Other Formats
Station Details ID: 200840 Name: BOUGAINVILLE REEF Lat: -15.49 Lon: 147.12 Height: 0.0 m
Data from the previous 72 hours. | See also: Recent months for locations in Queensland
Date/Time
EST
Temp

°C
Wind Pressure Rain
since 9am
mm
Weather Cloud Vis
km
Sea
Height
m
Swell
Dir
 
Speed
knots
Gust
knots
hPa Trend Height
m
Period
s
Dir
30/08:00am 22.5 SSE 24 30 1016.5 - - - - - - - - -
30/07:30am 23.0 SSE 21 27 1016.5 - - - - - - - - -
30/07:00am 23.0 SE 21 28 1015.5 - - - - - - - - -
30/06:55am 23.1 ESE 20 28 1015.8 - - - - - - - - -
30/06:30am 22.9 SSE 21 27 1015.5 - - - - - - - - -
30/06:00am 23.0 SE 20 27 1015.0 - - - - - - - - -
30/05:30am 23.1 SE 22 29 1014.9 - - - - - - - - -
30/05:00am 23.0 SE 17 28 1014.6 - - - - - - - - -
30/04:30am 22.9 SSE 22 29 1014.5 - - - - - - - - -
30/04:00am 22.5 SE 22 29 1014.5 - - - - - - - - -
30/03:39am 22.2 SE 16 26 1014.7 - - - - - - - - -
30/03:30am 22.9 ESE 19 23 1014.8 - - - - - - - - -
30/03:00am 23.5 ESE 22 24 1014.4 - - - - - - - - -
30/02:30am 23.8 ESE 21 26 1014.6 - - - - - - - - -
30/02:00am 23.6 ESE 21 26 1014.8 - - - - - - - - -
30/01:30am 23.6 SE 22 26 1015.1 - - - - - - - - -
30/01:00am 23.8 SE 19 26 1015.3 - - - - - - - - -
30/12:30am 23.6 SE 20 26 1015.6 - - - - - - - - -
30/12:00am 23.5 SE 21 25 1015.9 - - - - - - - - -
 
Date/Time
EST
Temp

°C
Wind Pressure Rain
since 9am
mm
Weather Cloud Vis
km
Sea
Height
m
Swell
Dir
 
Speed
knots
Gust
knots
hPa Trend Height
m
Period
s
Dir
29/11:30pm 23.9 SE 20 26 1016.2 - - - - - - - - -
29/11:00pm 23.7 ESE 21 24 1016.1 - - - - - - - - -
29/10:30pm 23.6 SE 21 28 1016.3 - - - - - - - - -
29/10:09pm 23.6 ESE 21 25 1016.2 - - - - - - - - -
29/10:00pm 23.5 SE 19 27 1015.9 - - - - - - - - -
29/09:48pm 23.7 SE 19 26 1016.1 - - - - - - - - -
29/09:30pm 23.7 ESE 23 28 1016.0 - - - - - - - - -
29/09:00pm 23.7 SE 21 34 1015.8 - - - - - - - - -
29/08:32pm 23.5 SE 19 29 1016.0 - - - - - - - - -
29/08:30pm 23.8 SE 20 27 1016.0 - - - - - - - - -
29/08:00pm 23.6 SE 20 25 1015.6 - - - - - - - - -
29/07:30pm 23.5 SSE 20 27 1015.5 - - - - - - - - -
29/07:00pm 23.5 ESE 17 27 1015.1 - - - - - - - - -
29/06:58pm 23.5 SSE 22 27 1015.3 - - - - - - - - -
29/06:53pm 23.6 ESE 17 27 1015.2 - - - - - - - - -
29/06:30pm 23.6 SE 18 25 1015.2 - - - - - - - - -
29/06:00pm 23.6 SE 19 27 1014.6 - - - - - - - - -
29/05:46pm 23.6 SE 19 29 1014.7 - - - - - - - - -
29/05:30pm 23.6 SE 21 28 1014.6 - - - - - - - - -
29/05:02pm 23.4 SE 16 27 1014.5 - - - - - - - - -
29/05:00pm 23.8 SSE 19 25 1014.4 - - - - - - - - -
29/04:30pm 23.7 SE 21 27 1014.4 - - - - - - - - -
29/04:00pm 23.5 SE 21 24 1014.2 - - - - - - - - -
29/03:30pm 23.4 SE 21 25 1014.4 - - - - - - - - -
29/03:00pm 23.2 SE 22 26 1014.4 - - - - - - - - -
29/02:30pm 23.2 ESE 21 26 1014.7 - - - - - - - - -
29/02:00pm 23.2 SE 20 27 1014.8 - - - - - - - - -
29/01:30pm 22.8 SSE 20 27 1015.5 - - - - - - - - -
29/01:00pm 22.7 SE 22 27 1015.6 - - - - - - - - -
29/12:30pm 22.8 SSE 20 26 1015.9 - - - - - - - - -
29/12:00pm 22.7 SE 21 27 1016.1 - - - - - - - - -
29/11:30am 22.6 SE 21 25 1016.5 - - - - - - - - -
29/11:00am 22.6 SE 21 25 1016.8 - - - - - - - - -
29/10:30am 22.5 SE 22 29 1016.9 - - - - - - - - -
29/10:00am 22.7 SE 24 29 1016.8 - - - - - - - - -
29/09:30am 22.4 SSE 24 30 1017.1 - - - - - - - - -
29/09:20am 22.6 SSE 23 33 1017.1 - - - - - - - - -
29/09:00am 22.6 SSE 24 29 1016.9 - - - - - - - - -
29/08:30am 22.7 SSE 21 29 1016.8 - - - - - - - - -
29/08:15am 22.8 SSE 19 29 1016.7 - - - - - - - - -
29/08:00am 22.8 SSE 22 31 1016.4 - - - - - - - - -
29/07:36am 22.7 SSE 20 30 1016.6 - - - - - - - - -
29/07:30am 22.7 SSE 23 30 1016.5 - - - - - - - - -
29/07:00am 22.7 SSE 20 30 1016.0 - - - - - - - - -
29/06:44am 22.7 SSE 20 30 1016.0 - - - - - - - - -
29/06:30am 22.7 SSE 21 30 1015.8 - - - - - - - - -
29/06:00am 22.6 SSE 23 34 1015.3 - - - - - - - - -
29/05:51am 22.6 SSE 24 34 1015.4 - - - - - - - - -
29/05:30am 22.9 SE 24 31 1015.4 - - - - - - - - -
29/05:15am 22.7 SE 25 35 1015.3 - - - - - - - - -
29/05:00am 22.8 SE 25 31 1015.3 - - - - - - - - -
29/04:51am 22.9 SSE 23 34 1015.4 - - - - - - - - -
29/04:30am 22.7 ESE 25 32 1015.4 - - - - - - - - -
29/04:00am 22.7 ESE 24 28 1015.4 - - - - - - - - -
29/03:30am 22.5 ESE 24 30 1015.4 - - - - - - - - -
29/03:00am 22.7 ESE 23 29 1015.6 - - - - - - - - -
29/02:30am 22.5 ESE 21 27 1015.8 - - - - - - - - -
29/02:00am 22.5 ESE 20 25 1016.1 - - - - - - - - -
29/01:30am 22.6 ESE 20 27 1016.5 - - - - - - - - -
29/01:00am 22.6 ESE 20 23 1016.7 - - - - - - - - -
29/12:30am 22.4 ESE 20 26 1016.9 - - - - - - - - -
29/12:08am 22.6 ESE 19 29 1017.0 - - - - - - - - -
29/12:00am 22.5 ESE 18 26 1017.2 - - - - - - - - -
 
Date/Time
EST
Temp

°C
Wind Pressure Rain
since 9am
mm
Weather Cloud Vis
km
Sea
Height
m
Swell
Dir
 
Speed
knots
Gust
knots
hPa Trend Height
m
Period
s
Dir
28/11:30pm 22.5 SE 19 26 1017.4 - - - - - - - - -
28/11:00pm 22.6 ESE 17 24 1017.4 - - - - - - - - -
28/10:30pm 22.5 ESE 19 25 1017.3 - - - - - - - - -
28/10:01pm 22.6 ESE 18 28 1017.5 - - - - - - - - -
28/10:00pm 22.7 ESE 14 28 1017.4 - - - - - - - - -
28/09:45pm 22.8 ESE 15 25 1017.5 - - - - - - - - -
28/09:30pm 22.7 SE 17 26 1017.4 - - - - - - - - -
28/09:26pm 22.8 ESE 16 26 1017.3 - - - - - - - - -
28/09:00pm 22.9 ESE 19 25 1017.1 - - - - - - - - -
28/08:30pm 23.0 ESE 19 24 1017.1 - - - - - - - - -
28/08:00pm 23.0 ESE 17 21 1016.8 - - - - - - - - -
28/07:30pm 23.0 ESE 16 23 1016.6 - - - - - - - - -
28/07:14pm 23.1 ESE 15 25 1016.5 - - - - - - - - -
28/07:00pm 23.2 ESE 17 22 1016.2 - - - - - - - - -
28/06:30pm 23.2 SE 15 23 1016.0 - - - - - - - - -
28/06:00pm 23.2 SSE 19 26 1015.3 - - - - - - - - -
28/05:30pm 23.3 SSE 18 24 1015.2 - - - - - - - - -
28/05:00pm 23.3 SE 16 21 1014.8 - - - - - - - - -
28/04:30pm 23.2 SSE 14 23 1014.7 - - - - - - - - -
28/04:00pm 23.2 SSE 15 23 1014.5 - - - - - - - - -
28/03:43pm 23.4 SSE 16 26 1014.7 - - - - - - - - -
28/03:30pm 23.4 SSE 17 24 1014.6 - - - - - - - - -
28/03:00pm 23.4 SSE 16 24 1014.6 - - - - - - - - -
28/02:30pm 23.3 SSE 17 24 1014.8 - - - - - - - - -
28/02:00pm 23.2 SSE 18 24 1015.0 - - - - - - - - -
28/01:37pm 23.2 SSE 17 29 1015.2 - - - - - - - - -
28/01:30pm 23.3 SSE 17 25 1015.4 - - - - - - - - -
28/01:00pm 23.1 SSE 17 24 1015.8 - - - - - - - - -
28/12:30pm 23.1 SSE 17 23 1016.1 - - - - - - - - -
28/12:00pm 23.2 SSE 18 22 1016.3 - - - - - - - - -
28/11:30am 23.2 SSE 18 24 1016.6 - - - - - - - - -
28/11:00am 23.1 SSE 17 24 1016.9 - - - - - - - - -
28/10:30am 23.1 SSE 18 24 1017.1 - - - - - - - - -
28/10:00am 23.2 SE 19 25 1017.1 - - - - - - - - -
28/09:30am 23.4 SSE 17 24 1017.3 - - - - - - - - -
28/09:00am 23.1 SSE 16 23 1016.9 - - - - - - - - -
28/08:30am 23.1 SSE 19 24 1016.9 - - - - - - - - -
28/08:00am 23.1 SSE 18 27 1016.5 - - - - - - - - -
28/07:30am 23.2 SE 17 23 1016.4 - - - - - - - - -
28/07:00am 23.0 SE 17 22 1015.8 - - - - - - - - -
28/06:30am 22.8 SE 17 22 1015.6 - - - - - - - - -
28/06:00am 22.7 ESE 17 22 1015.1 - - - - - - - - -
28/05:30am 22.8 ESE 17 23 1015.0 - - - - - - - - -
28/05:00am 22.6 E 18 23 1014.7 - - - - - - - - -
28/04:30am 22.4 E 18 21 1014.7 - - - - - - - - -
28/04:00am 22.4 ESE 18 22 1014.6 - - - - - - - - -
28/03:30am 22.2 E 17 21 1014.9 - - - - - - - - -
28/03:00am 22.2 ESE 18 22 1015.0 - - - - - - - - -
28/02:30am 22.2 ESE 17 23 1015.2 - - - - - - - - -
28/02:00am 22.4 ESE 18 23 1015.5 - - - - - - - - -
28/01:30am 22.5 ESE 16 21 1015.8 - - - - - - - - -
28/01:00am 22.4 ESE 15 25 1015.9 - - - - - - - - -
28/12:57am 22.4 ESE 15 25 1015.8 - - - - - - - - -
28/12:30am 22.6 ESE 15 21 1016.1 - - - - - - - - -
28/12:00am 22.6 ESE 15 19 1016.3 - - - - - - - - -
 
Date/Time
EST
Temp

°C
Wind Pressure Rain
since 9am
mm
Weather Cloud Vis
km
Sea
Height
m
Swell
Dir
 
Speed
knots
Gust
knots
hPa Trend Height
m
Period
s
Dir
27/11:30pm 22.8 SE 14 22 1016.5 - - - - - - - - -
27/11:00pm 22.8 ESE 14 19 1016.4 - - - - - - - - -
27/10:30pm 22.8 ESE 13 21 1016.5 - - - - - - - - -
27/10:00pm 22.9 ESE 16 24 1016.4 - - - - - - - - -
27/09:30pm 23.0 ESE 13 20 1016.4 - - - - - - - - -
27/09:00pm 22.9 ESE 14 22 1016.1 - - - - - - - - -
27/08:30pm 23.0 ESE 15 24 1016.0 - - - - - - - - -
27/08:00pm 23.1 ESE 15 22 1015.4 - - - - - - - - -
27/07:30pm 23.0 ESE 14 21 1015.3 - - - - - - - - -
27/07:00pm 23.1 ESE 13 22 1014.8 - - - - - - - - -
27/06:30pm 23.2 SE 14 20 1014.7 - - - - - - - - -
27/06:00pm 23.1 ESE 13 21 1014.1 - - - - - - - - -
27/05:30pm 23.2 ESE 13 20 1013.9 - - - - - - - - -
27/05:00pm 23.3 SSE 16 20 1013.6 - - - - - - - - -
27/04:30pm 23.5 SSE 16 22 1013.6 - - - - - - - - -
27/04:00pm 23.6 SSE 15 23 1013.4 - - - - - - - - -
27/03:30pm 23.4 SSE 18 23 1013.5 - - - - - - - - -
27/03:00pm 23.3 SSE 17 23 1013.4 - - - - - - - - -
27/02:30pm 23.5 SSE 15 22 1013.6 - - - - - - - - -
27/02:00pm 23.5 SSE 16 23 1014.0 - - - - - - - - -
27/01:52pm 23.4 SSE 15 25 1014.1 - - - - - - - - -
27/01:30pm 23.3 SSE 16 23 1014.3 - - - - - - - - -
27/01:00pm 23.5 SSE 17 21 1014.6 - - - - - - - - -
27/12:30pm 23.3 SSE 16 23 1015.0 - - - - - - - - -
27/12:00pm 23.4 SSE 19 23 1015.3 - - - - - - - - -
27/11:30am 23.5 SSE 18 24 1015.7 - - - - - - - - -
27/11:00am 23.4 SSE 18 24 1016.0 - - - - - - - - -
27/10:30am 23.3 SSE 19 25 1016.3 - - - - - - - - -
27/10:00am 23.4 SSE 20 25 1016.4 - - - - - - - - -
27/09:30am 23.3 SSE 19 24 1016.6 - - - - - - - - -
27/09:00am 23.1 SSE 18 21 1016.1 - - - - - - - - -
27/08:30am 23.1 SSE 16 25 1016.1 - - - - - - - - -

Other Formats:

Comma delimited format used in spreadsheet applications
http://www.bom.gov.au/fwo/IDQ60701/IDQ60701.95288.axf

JavaScript Object Notation format (JSON) in row-major order
http://www.bom.gov.au/fwo/IDQ60701/IDQ60701.95288.json